Hourly Data Report for September 01, 2017

All times are specified in Local Standard Time (LST). Add 1 hour to adjust for Daylight Saving Time where and when it is observed.

ST. PETERS
PRINCE EDWARD ISLAND

46°27'01.000" N
62°34'33.000" W
29.70 m
8300562
71310
ZSP

Download Data

Hourly Data (September 2017)
Hourly Data Report for September 1, 2017
Temp Definition
°C
Dew Point Temp Definition
°C
Rel Hum Definition
%
Wind Dir Definition
10's deg

Wind Spd Definition
km/h
Visibility Definition
km
Stn Press Definition
kPa
Hmdx Definition


Wind Chill Definition


Weather Definition


TIME
00:00 14.8 9.9 72 29 21   100.00     LegendNANA
01:00 14.9 9.8 71 28 16   100.02     LegendNANA
02:00 13.8 10.1 78 24 14   100.03     LegendNANA
03:00 13.9 9.9 77 26 22   100.04     LegendNANA
04:00 13.3 8.5 73 28 17   100.08     LegendNANA
05:00 12.0 8.5 79 24 14   100.13     LegendNANA
06:00 11.8 7.3 74 26 17   100.17     LegendNANA
07:00 12.5 7.2 70 27 19   100.20     LegendNANA
08:00 13.0 8.1 72 25 17   100.24     LegendNANA
09:00 14.5 8.0 65 25 18   100.24     LegendNANA
10:00 13.8 8.4 70 27 17   100.24     LegendNANA
11:00 14.6 7.6 63 26 21   100.22     LegendNANA
12:00 15.0 6.8 58 26 25   100.24     LegendNANA
13:00 14.6 7.4 62 25 16   100.26     LegendNANA
14:00 14.6 6.6 59 27 19   100.24     LegendNANA
15:00 15.4 6.6 56 24 15   100.21     LegendNANA
16:00 11.0 7.9 82 28 19   100.25     LegendNANA
17:00 14.3 8.8 70 20 15   100.23     LegendNANA
18:00 13.5 8.1 70 27 14   100.29     LegendNANA
19:00 11.5 6.3 70 24 16   100.36     LegendNANA
20:00 11.0 6.1 71 24 14   100.39     LegendNANA
21:00 10.9 6.3 73 24 16   100.41     LegendNANA
22:00 9.8 7.2 84 23 17   100.44     LegendNANA
23:00 9.6 7.6 87 22 14   100.44     LegendNANA

Notes on Data Quality.

Legend

  • E = Estimated
  • M = Missing
  • NA = Not Available
  • ‡ = Partner data that is not subject to review by the National Climate Archives
Date modified: